2020-058A (46232 NORAD) Tracking and Keplerian Element Data

This shows tracking and keplerian element data for the satellite.

Feedback or suggestion? Click here.




ElementValue
Catalog46232
Name2020-058A
Epoch Orbit499
Epoch Day268.93424946
Epoch Year2020
RAAN316.4546
Inclination97.5005
Eccentricity0.0018337
Argument of Perigee147.561
Mean Anonmoly337.2846
Mean Motion15.23956164
Decay Rate-7.3E-07
L11 46232U 20058A 20268.93424946 -.00000073 00000-0 00000-0 0 9992
L22 46232 97.5005 316.4546 0018337 147.5610 337.2846 15.23956164 4997

Live tracking and technical data element details for 2020-058A (NORAD 46232). 2020-058A can be tracked NOW for your location showing map with azimuth and elevation plus other details from your city location.

Track the satellite on the map from your city or location and see movement details for azimuth, elevation, latitude, longitude, range, height, and movement on the map or in text.







IsCatalogInMostPopularTable: catalog: 46232, numindb: 3
Update: records affected: 1



GetName: 46232 2020-058A

Hit Count: updated at: Sat, 26 Sep 2020 15:34:15 GMT